Regional Weather Roundup
Issued by NWS Charleston, WV

Home | Current Version | Previous Version | Graphics & Text | Print | Product List | Glossary On
Versions: 1 2 3 4 5 6 7 8 9 10 11 12 13 14 15 16 17 18 19 20 21 22 23 24 25 26 27 28 29 30 31 32 33 34 35 36 37 38 39 40 41 42 43 44 45 46 47 48 49 50
000
ASUS41 KRLX 061410
RWRRLX
West Virginia Regional Weather Roundup
National Weather Service Charleston WV
900 AM EST TUE DEC 06 2016

Note: "fair" indicates few or no clouds below 12,000 feet with no
significant weather and/or obstructions to visibility.

WVZ003-061500-
Northern Panhandle of West Virginia

CITY           SKY/WX    TMP DP  RH WIND       PRES   REMARKS
WHEELING       CLOUDY    37  30  75 E15       29.83F
$$

WVZ009-061500-
Northwest West Virginia

CITY           SKY/WX    TMP DP  RH WIND       PRES   REMARKS
PARKERSBURG    CLOUDY    41  35  79 E8        29.80F
$$

WVZ006-061500-
Western West Virginia

CITY           SKY/WX    TMP DP  RH WIND       PRES   REMARKS
HUNTINGTON     LGT RAIN  45  43  93 NE6       29.69F FOG
$$

WVZ015-061500-
West Central West Virginia

CITY           SKY/WX    TMP DP  RH WIND       PRES   REMARKS
CHARLESTON     LGT RAIN  48  39  71 E7        29.71F
$$

WVZ022-031-061500-
North Central West Virginia

CITY           SKY/WX    TMP DP  RH WIND       PRES   REMARKS
CLARKSBURG     CLOUDY    42  39  89 NE7       29.82F
MORGANTOWN     LGT RAIN  42  33  70 VRB5      29.85F
$$

WVZ025-035-042-045-061500-
Southern West Virginia

CITY           SKY/WX    TMP DP  RH WIND       PRES   REMARKS
BECKLEY        RAIN      39  36  89 SE20G37   29.79F
LOGAN          LGT RAIN  45  43  93 SE10G17   29.70F
BLUEFIELD      RAIN      36  34  92 SE14G28   29.82F FOG
LEWISBURG      LGT RAIN  38  36  91 E6        29.90R
$$

WVZ047-061500-
Northern Mountains of West Virginia

CITY           SKY/WX    TMP DP  RH WIND       PRES   REMARKS
ELKINS         LGT RAIN  41  33  73 SE16G23   29.86F
$$

WVZ052-061500-
Eastern Panhandle of West Virginia

CITY           SKY/WX    TMP DP  RH WIND       PRES   REMARKS
MARTINSBURG    LGT RAIN  37  32  82 CALM      30.08S
PETERSBURG     MIX PCPN  37  36  96 CALM      30.02F
$$



USA.gov is the U.S. government's official web portal to all federal, state and local government web resources and services.